Location: Observatory
(52.1446°N, 0.4624°W)
Time: 06:23:32
(UTC+00:00)

ISS - Pass Details

Date: 08 December 2017
Orbit: 403 x 407 km, 51.6° (Epoch: 12 December)

Event Time Altitude Azimuth Distance (km) Brightness Sun altitude
Rises 18:07:44 0° 276° (W) 2,332 1.4 -19.9°
Reaches altitude 10° 18:09:49 10° 275° (W) 1,470 0.1 -20.2°
Enters shadow 18:12:58 72° 218° (SW) 432 -3.7 -20.7°
